Weather in Bandol

France     43°08′11″N   5°45′09″E
temp.,
°C
wind,
m/s
gust,
m/s
humid.,
%
clouds,
%
prec.,
mm/h
press.,
hPa
HPBL,
m
12 may, wed
wed1223:00+12nw714660 0.0 1013837
02:00+11nw815670 0.0 1013835
05:00+9nw49729 0.0 1013412
08:00+11wnw41066100 0.0 1012524
11:00+14w7105429 0.0 1012928
14:00+16w79460 0.0 10111187
17:00+16w67435 0.0 1010954
20:00+14w595497 0.0 1010666
13 may, thu
thu1323:00+12wnw613713 0.0 1011934
02:00+11wnw714756 0.0 1011802
05:00+9nw614736 0.0 1010784
08:00+10wnw614640 0.0 1010832
11:00+14nw1115470 0.0 10091182
14:00+16nw1114414 0.0 10091690
17:00+17wnw912405 0.0 10071779
20:00+13w8126332 0.0 10091140
14 may, fri
fri1423:00+12wnw5118599 0.0 1010883
02:00+11w468098 0.0 1010338
05:00+10wnw23847 0.0 1008128
08:00+11w3570100 0.0 1009311
11:00+15wnw685399 0.0 10091097
14:00+16wnw9104543 0.0 10081921
17:00+18wnw810395 0.0 10071966
20:00+15nw815471 0.0 10091762
15 may, sat
sat1523:00+13nw81548100 0.0 10111199
02:00+12nw71356100 0.0 1012853
05:00+11wnw4126366 0.0 1011647
08:00+12wnw41061100 0.0 1013741
11:00+12wnw61052100 0.0 1014849
14:00+14wnw51060100 0.0 1013872
17:00+13wnw4106499 0.0 1012697
20:00+12wnw4107014 0.0 1012539
16 may, sun
sun1623:00+10nw3782100 0.0 1014249
02:00+9nw358617 0.0 1013148
05:00+9nw338684 0.0 101374
08:00+12nnw2569100 0.0 1012194
11:00+17nw4104798 0.0 1013731
14:00+20wnw51044100 0.0 10131042
17:00+19wnw6105050 0.0 1012891
20:00+16wnw5967100 0.0 1013669